Tracking 20370 objects as of 20-Feb-2020
HD Live streaming from Space Station
objects crossing your sky now
Track the group of recently launched Starlink satellites

COSMOS 1137

Track COSMOS 1137 now!
10-day predictions
COSMOS 1137 is classified as:


NORAD ID: 11545
Int'l Code: 1979-084H
Perigee: 1,478.9 km
Apogee: 1,521.9 km
Inclination: 74.0 °
Period: 115.8 minutes
Semi major axis: 7871 km
RCS: 0.7275 m2 (medium)
Launch date: September 25, 1979
Source: Commonwealth of Independent States (former USSR) (CIS)
Launch site: PLESETSK MISSILE AND SPACE COMPLEX (PKMTR)
aabbcc
Your satellite tracking list
Your tracking list is empty




NASA's NSSDC Master Catalog

Two Line Element Set (TLE):
1 11545U 79084H   20050.48009391 -.00000005 +00000-0 +77861-4 0  9994
2 11545 074.0245 044.2979 0027287 297.6605 180.0382 12.43160432833491
Source of the keplerian elements: AFSPC